Погода в Новоселках

Россия / Тверская область     55°50′55″N   31°48′41″E
темп.,
°C
ветер,
м/с
пор.,
м/с
влажн.,
%
обл.,
%
осадки,
мм/ч
давл.,
гПа
погр.,
м
22 апреля, чт
чт2200:00+5юз3990100 0.5 1008417
03:00+4ю3109474 2.8 1008269
06:00+4ююз399683 0.0 1008203
09:00+9юз367830 0.0 1009373
12:00+13юз465135 0.0 10101340
15:00+15ююз4640100 0.0 10092457
18:00+12ю486433 1.0 1009962
21:00+8ю388315 1.6 1009147
23 апреля, пт
пт2300:00+6юз2496100 0.2 1009105
03:00+5юз3792100 4.3 1009733
06:00+5ююз3791100 0.8 1009493
09:00+6юз4778100 0.8 1010947
12:00+7юз6105691 0.1 10111978
15:00+8юз5846100 0.3 10112147
18:00+7юз465645 0.0 10111764
21:00+3юз278043 0.0 1012230
24 апреля, сб
сб2400:00+2зюз268722 0.0 1011273
03:000з269759 0.0 1010169
06:00−1зсз269823 0.0 1010233
09:00+3зсз356867 0.0 1010924
12:00+5з465099 0.1 10101803
15:00+5з4654100 0.1 10101609
18:00+5з4665100 0.3 10101179
21:00+1зюз288370 0.6 1011238
25 апреля, вс
вс2500:00−1юз289345 0.0 1010195
03:000юз399190 0.0 1010462
06:00−1юз41090100 0.0 1009680
09:00+1зюз5986100 0.6 1009875
12:00+3зюз577198 0.3 10101174
15:00+4зюз5864100 0.7 10101376
18:00+4зюз3766100 0.4 10101225
21:00+1юз398657 0.7 1010449
26 апреля, пн
пн2600:00+1зюз389187 0.1 1011541
03:00−1юз389689 0.1 1011309
06:000юз389395 0.0 1011385
09:00+2юз466895 0.1 10101170
12:00+4зюз4666100 0.4 10101464
15:00+5зюз4660100 1.4 10101659
18:00+5зюз3667100 0.7 10091264
21:00+1юз249071 0.9 100992